Coolangatta, Queensland

5:44 AM AEST on February 15, 2016 (GMT +1000)
Coolangatta

Weather History for 94592 - May, 2013

Change the Weather History Date:

Monday, May 20, 2013

  Actual Average Record
Temperature  
Mean Temperature 56 °F -  
Max Temperature 70 °F - - ()
Min Temperature 41 °F - - ()
Degree Days  
Heating Degree Days 10    
Growing Degree Days 6 (Base 50)    
Moisture  
Dew Point 45 °F    
Average Humidity 72    
Maximum Humidity 100    
Minimum Humidity 30    
Precipitation  
Precipitation 0.00 in - - ()
Sea Level Pressure  
Sea Level Pressure 30.03 in    
Wind  
Wind Speed 3 mph ()    
Max Wind Speed 12 mph    
Max Gust Speed -    
Visibility 6.2 miles    
Events      
T = Trace of Precipitation, MM = Missing Value Source: Averaged Metar Reports

Daily Weather History Graph

Daily Weather History Graph

Search for Another Location

Airport or City:

Trip Planner

Search our weather history database for the weather conditions in past years. The results will help you decide how hot, cold, wet, or windy it might be!

Date:

Astronomy

May. 20, 2013 Rise Set
Actual Time 6:23 AM AEST 5:01 PM AEST
Civil Twilight 5:58 AM AEST 5:26 PM AEST
Nautical Twilight 5:29 AM AEST 5:55 PM AEST
Astronomical Twilight 5:01 AM AEST 6:23 PM AEST
Moon 1:18 PM AEST (5/20) 12:52 AM AEST (5/20)
Length of Visible Light 11h 28m
Length of Day
10h 38m
Waxing Gibbous, 69% of the Moon is Illuminated
May 20
Waxing Gibbous
May 25
Full
Jun 1
Last Quarter
Jun 9
New
Jun 17
First Quarter

Hourly Weather History & Observations

Time (AEST) Temp. Windchill Dew Point Humidity Pressure Visibility Wind Dir Wind Speed Gust Speed Precip Events Conditions
12:00 AM 48 °F - 46 °F 91% 30.04 in - SW 1.2 mph - -  
12:00 AM 48.2 °F - 46.4 °F 93% 30.04 in 6.2 mi SW 1.2 mph - N/A   Unknown
12:30 AM 46.4 °F - 44.6 °F 93% 30.04 in 6.2 mi Calm Calm - N/A   Unknown
1:00 AM 44.6 °F - 41.0 °F 87% 30.04 in 6.2 mi Calm Calm - N/A   Unknown
1:30 AM 44.6 °F - 42.8 °F 93% 30.04 in 6.2 mi SW 1.2 mph - N/A   Unknown
2:00 AM 42.8 °F 41.1 °F 41.0 °F 93% 30.01 in 6.2 mi SSW 3.5 mph - N/A   Unknown
2:30 AM 42.8 °F - 41.0 °F 93% 30.01 in 6.2 mi WSW 2.3 mph - N/A   Unknown
3:00 AM 43 °F - 41 °F 90% 30.02 in - SE 1.2 mph - -  
3:00 AM 42.8 °F - 41.0 °F 93% 30.01 in 6.2 mi SE 1.2 mph - N/A   Unknown
3:30 AM 42.8 °F - 42.8 °F 100% 30.01 in 6.2 mi SE 1.2 mph - N/A   Unknown
4:00 AM 42.8 °F - 41.0 °F 93% 30.01 in 6.2 mi NNW 1.2 mph - N/A   Unknown
4:30 AM 42.8 °F - 41.0 °F 93% 30.04 in 6.2 mi Calm Calm - N/A   Unknown
5:00 AM 42.8 °F - 42.8 °F 100% 30.04 in 6.2 mi Calm Calm - N/A   Unknown
5:30 AM 44.6 °F - 42.8 °F 93% 30.04 in 6.2 mi Calm Calm - N/A   Unknown
6:00 AM 44 °F - 42 °F 92% 30.06 in - WSW 4.6 mph - -  
6:00 AM 44.6 °F 42.2 °F 42.8 °F 93% 30.04 in 6.2 mi WSW 4.6 mph - N/A   Unknown
6:30 AM 44.6 °F 43.1 °F 42.8 °F 93% 30.04 in 6.2 mi WSW 3.5 mph - N/A   Unknown
7:00 AM 48.2 °F - 46.4 °F 93% 30.06 in 6.2 mi WSW 5.8 mph - N/A   Unknown
7:30 AM 50.0 °F - 46.4 °F 87% 30.06 in 6.2 mi SW 4.6 mph - N/A   Unknown
8:00 AM 51.8 °F - 48.2 °F 88% 30.06 in 6.2 mi SW 3.5 mph - N/A   Unknown
8:30 AM 55.4 °F - 48.2 °F 77% 30.06 in 6.2 mi WSW 3.5 mph - N/A   Unknown
9:00 AM 59 °F - 48 °F 59% 30.08 in - Calm Calm - -  
9:00 AM 59.0 °F - 48.2 °F 67% 30.06 in 6.2 mi Calm Calm - N/A   Unknown
9:30 AM 64.4 °F - 46.4 °F 52% 30.09 in 6.2 mi West 3.5 mph - N/A   Unknown
10:00 AM 66.2 °F - 42.8 °F 43% 30.09 in 6.2 mi NNW 5.8 mph - N/A   Unknown
10:30 AM 68.0 °F - 42.8 °F 40% 30.06 in 6.2 mi NNE 5.8 mph - N/A   Unknown
11:00 AM 68.0 °F - 44.6 °F 43% 30.06 in 6.2 mi NNE 6.9 mph - N/A   Unknown
11:30 AM 68.0 °F - 46.4 °F 46% 30.04 in 6.2 mi NNE 9.2 mph - N/A   Unknown
12:00 PM 69 °F - 46 °F 32% 30.04 in - North 10.4 mph - -  
12:00 PM 69.8 °F - 46.4 °F 43% 30.04 in 6.2 mi North 10.4 mph - N/A   Unknown
12:30 PM 68.0 °F - 46.4 °F 46% 30.01 in 6.2 mi NNE 10.4 mph - N/A   Unknown
1:00 PM 68.0 °F - 44.6 °F 43% 29.98 in 6.2 mi North 11.5 mph - N/A   Unknown
1:30 PM 68.0 °F - 44.6 °F 43% 29.98 in 6.2 mi North 10.4 mph - N/A   Unknown
2:00 PM 69.8 °F - 46.4 °F 43% 29.98 in 6.2 mi North 10.4 mph - N/A   Unknown
2:30 PM 69.8 °F - 44.6 °F 40% 29.98 in 6.2 mi North 11.5 mph - N/A   Unknown
3:00 PM 70 °F - 45 °F 30% 29.97 in - North 10.4 mph - -  
3:00 PM 69.8 °F - 44.6 °F 40% 29.98 in 6.2 mi North 10.4 mph - N/A   Unknown
3:30 PM 69.8 °F - 42.8 °F 38% 29.98 in 6.2 mi North 9.2 mph - N/A   Unknown
4:00 PM 68.0 °F - 42.8 °F 40% 29.95 in 6.2 mi North 8.1 mph - N/A   Unknown
4:30 PM 66.2 °F - 42.8 °F 43% 29.98 in 6.2 mi North 4.6 mph - N/A   Unknown
5:00 PM 60.8 °F - 44.6 °F 55% 29.98 in 6.2 mi North 3.5 mph - N/A   Unknown
5:30 PM 59.0 °F - 48.2 °F 67% 29.98 in 6.2 mi WSW 5.8 mph - N/A   Unknown
6:00 PM 56 °F - 49 °F 71% 29.99 in - WSW 6.9 mph - -  
6:00 PM 57.2 °F - 50.0 °F 77% 29.98 in 6.2 mi WSW 6.9 mph - N/A   Unknown
6:30 PM 55.4 °F - 48.2 °F 77% 30.01 in 6.2 mi WSW 4.6 mph - N/A   Unknown
7:00 PM 53.6 °F - 46.4 °F 77% 30.01 in 6.2 mi SSW 4.6 mph - N/A   Unknown
7:30 PM 53.6 °F - 48.2 °F 82% 30.01 in 6.2 mi SSW 3.5 mph - N/A   Unknown
8:00 PM 51.8 °F - 48.2 °F 88% 30.04 in 6.2 mi Calm Calm - N/A   Unknown
8:30 PM 51.8 °F - 48.2 °F 88% 30.04 in 6.2 mi SW 5.8 mph - N/A   Unknown
9:00 PM 52 °F - 48 °F 80% 30.05 in - SW 5.8 mph - -  
9:00 PM 51.8 °F - 48.2 °F 88% 30.04 in 6.2 mi SW 5.8 mph - N/A   Unknown
9:30 PM 51.8 °F - 46.4 °F 82% 30.04 in 6.2 mi SSW 3.5 mph - N/A   Unknown
10:00 PM 50.0 °F - 46.4 °F 87% 30.04 in 6.2 mi SW 3.5 mph - N/A   Unknown
10:30 PM 48.2 °F - 46.4 °F 93% 30.06 in 6.2 mi South 3.5 mph - N/A   Unknown
11:00 PM 48.2 °F - 46.4 °F 93% 30.04 in 6.2 mi South 4.6 mph - N/A   Unknown
11:30 PM 50.0 °F - 48.2 °F 94% 30.06 in 6.2 mi South 6.9 mph - N/A   Unknown